Time,TemperatureF,DewpointF,PressureIn,WindDirection,WindDirectionDegrees,WindSpeedMPH,WindSpeedGustMPH,Humidity,HourlyPrecipIn,Conditions,Clouds,dailyrainin,SoftwareType,DateUTC
2013-09-05 03:42:00,65.0,-99.9,-100.00,North,-999,-999.0,-999.0,-999,0.00,,,0.09,,2013-09-05 07:42:00,
2013-09-05 04:42:00,64.0,-99.9,-100.00,North,-999,-999.0,-999.0,-999,0.00,,,0.09,,2013-09-05 08:42:00,
2013-09-05 04:52:00,64.0,-99.9,-100.00,North,-999,-999.0,-999.0,-999,0.00,,,0.09,,2013-09-05 08:52:00,
2013-09-05 05:03:00,64.0,-99.9,-100.00,North,-999,-999.0,-999.0,-999,0.00,,,0.09,,2013-09-05 09:03:00,
2013-09-05 05:11:00,64.0,-99.9,-100.00,North,-999,-999.0,-999.0,-999,0.00,,,0.09,,2013-09-05 09:11:00,
2013-09-05 05:43:00,62.0,-99.9,-100.00,North,-999,-999.0,-999.0,-999,0.00,,,0.09,,2013-09-05 09:43:00,
2013-09-05 05:54:00,62.0,-99.9,-100.00,North,-999,-999.0,-999.0,-999,0.00,,,0.09,,2013-09-05 09:54:00,
2013-09-05 06:04:00,62.0,-99.9,-100.00,North,-999,-999.0,-999.0,-999,0.00,,,0.09,,2013-09-05 10:04:00,
2013-09-05 06:13:00,62.0,-99.9,-100.00,North,-999,-999.0,-999.0,-999,0.00,,,0.09,,2013-09-05 10:13:00,
2013-09-05 06:43:00,61.0,-99.9,-100.00,North,-999,-999.0,-999.0,-999,0.00,,,0.09,,2013-09-05 10:43:00,
2013-09-05 06:54:00,61.0,-99.9,-100.00,North,-999,-999.0,-999.0,-999,0.00,,,0.09,,2013-09-05 10:54:00,
2013-09-05 07:03:00,61.0,-99.9,-100.00,North,-999,-999.0,-999.0,-999,0.00,,,0.09,,2013-09-05 11:03:00,
2013-09-05 07:12:00,61.0,-99.9,-100.00,North,-999,-999.0,-999.0,-999,0.00,,,0.09,,2013-09-05 11:12:00,
2013-09-05 07:43:00,59.0,-99.9,-100.00,North,-999,-999.0,-999.0,-999,0.00,,,0.09,,2013-09-05 11:43:00,
2013-09-05 07:52:00,59.0,-99.9,-100.00,North,-999,-999.0,-999.0,-999,0.00,,,0.09,,2013-09-05 11:52:00,
2013-09-05 08:02:00,59.0,-99.9,-100.00,North,-999,-999.0,-999.0,-999,0.00,,,0.09,,2013-09-05 12:02:00,
2013-09-05 08:13:00,59.0,-99.9,-100.00,North,-999,-999.0,-999.0,-999,0.00,,,0.09,,2013-09-05 12:13:00,
2013-09-05 08:42:00,60.0,-99.9,-100.00,North,-999,-999.0,-999.0,-999,0.01,,,0.10,,2013-09-05 12:42:00,
2013-09-05 08:52:00,60.0,-99.9,-100.00,North,-999,-999.0,-999.0,-999,0.01,,,0.10,,2013-09-05 12:52:00,
2013-09-05 09:02:00,60.0,-99.9,-100.00,North,-999,-999.0,-999.0,-999,0.01,,,0.10,,2013-09-05 13:02:00,
2013-09-05 09:12:00,60.0,-99.9,-100.00,North,-999,-999.0,-999.0,-999,0.01,,,0.10,,2013-09-05 13:12:00,
2013-09-05 09:42:00,63.0,-99.9,-100.00,North,-999,-999.0,-999.0,-999,0.00,,,0.10,,2013-09-05 13:42:00,
2013-09-05 09:53:00,63.0,-99.9,-100.00,North,-999,-999.0,-999.0,-999,0.00,,,0.10,,2013-09-05 13:53:00,
2013-09-05 10:02:00,63.0,-99.9,-100.00,North,-999,-999.0,-999.0,-999,0.00,,,0.10,,2013-09-05 14:02:00,
2013-09-05 10:12:00,63.0,-99.9,-100.00,North,-999,-999.0,-999.0,-999,0.00,,,0.10,,2013-09-05 14:12:00,
2013-09-05 10:52:00,67.0,-99.9,-100.00,North,-999,-999.0,-999.0,-999,0.00,,,0.10,,2013-09-05 14:52:00,
2013-09-05 11:02:00,67.0,-99.9,-100.00,North,-999,-999.0,-999.0,-999,0.00,,,0.10,,2013-09-05 15:02:00,
2013-09-05 11:11:00,67.0,-99.9,-100.00,North,-999,-999.0,-999.0,-999,0.00,,,0.10,,2013-09-05 15:11:00,
2013-09-05 11:44:00,69.0,-99.9,-100.00,North,-999,-999.0,-999.0,-999,0.00,,,0.10,,2013-09-05 15:44:00,
2013-09-05 11:54:00,69.0,-99.9,-100.00,North,-999,-999.0,-999.0,-999,0.00,,,0.10,,2013-09-05 15:54:00,
2013-09-05 12:04:00,69.0,-99.9,-100.00,North,-999,-999.0,-999.0,-999,0.00,,,0.10,,2013-09-05 16:04:00,
2013-09-05 12:13:00,69.0,-99.9,-100.00,North,-999,-999.0,-999.0,-999,0.00,,,0.10,,2013-09-05 16:13:00,
2013-09-05 15:42:00,70.0,-99.9,-100.00,North,-999,-999.0,-999.0,-999,0.00,,,0.10,,2013-09-05 19:42:00,
2013-09-05 15:53:00,70.0,-99.9,-100.00,North,-999,-999.0,-999.0,-999,0.00,,,0.10,,2013-09-05 19:53:00,
2013-09-05 16:03:00,70.0,-99.9,-100.00,North,-999,-999.0,-999.0,-999,0.00,,,0.10,,2013-09-05 20:03:00,
2013-09-05 16:11:00,70.0,-99.9,-100.00,North,-999,-999.0,-999.0,-999,0.00,,,0.10,,2013-09-05 20:11:00,
2013-09-05 18:43:00,65.0,-99.9,-100.00,North,-999,-999.0,-999.0,-999,0.00,,,0.10,,2013-09-05 22:43:00,
2013-09-05 18:53:00,65.0,-99.9,-100.00,North,-999,-999.0,-999.0,-999,0.00,,,0.10,,2013-09-05 22:53:00,
2013-09-05 19:02:00,65.0,-99.9,-100.00,North,-999,-999.0,-999.0,-999,0.00,,,0.10,,2013-09-05 23:02:00,
2013-09-05 19:12:00,65.0,-99.9,-100.00,North,-999,-999.0,-999.0,-999,0.00,,,0.10,,2013-09-05 23:12:00,
2013-09-05 19:42:00,60.0,-99.9,-100.00,North,-999,-999.0,-999.0,-999,0.00,,,-99.99,,2013-09-05 23:42:00,
2013-09-05 19:53:00,60.0,-99.9,-100.00,North,-999,-999.0,-999.0,-999,0.00,,,-99.99,,2013-09-05 23:53:00,
2013-09-05 20:02:00,60.0,-99.9,-100.00,North,-999,-999.0,-999.0,-999,0.00,,,-99.99,,2013-09-06 00:02:00,
2013-09-05 20:12:00,60.0,-99.9,-100.00,North,-999,-999.0,-999.0,-999,0.00,,,-99.99,,2013-09-06 00:12:00,
2013-09-05 20:42:00,57.0,-99.9,-100.00,North,-999,-999.0,-999.0,-999,0.00,,,0.09,,2013-09-06 00:42:00,
2013-09-05 20:52:00,57.0,-99.9,-100.00,North,-999,-999.0,-999.0,-999,0.00,,,0.09,,2013-09-06 00:52:00,
2013-09-05 21:02:00,57.0,-99.9,-100.00,North,-999,-999.0,-999.0,-999,0.00,,,0.09,,2013-09-06 01:02:00,
2013-09-05 21:11:00,57.0,-99.9,-100.00,North,-999,-999.0,-999.0,-999,0.00,,,0.09,,2013-09-06 01:11:00,
2013-09-05 21:42:00,54.0,-99.9,-100.00,North,-999,-999.0,-999.0,-999,0.00,,,0.08,,2013-09-06 01:42:00,
2013-09-05 21:53:00,54.0,-99.9,-100.00,North,-999,-999.0,-999.0,-999,0.00,,,0.08,,2013-09-06 01:53:00,
2013-09-05 22:02:00,54.0,-99.9,-100.00,North,-999,-999.0,-999.0,-999,0.00,,,0.08,,2013-09-06 02:02:00,
2013-09-05 22:12:00,54.0,-99.9,-100.00,North,-999,-999.0,-999.0,-999,0.00,,,0.08,,2013-09-06 02:12:00,
2013-09-05 22:42:00,52.0,-99.9,-100.00,North,-999,-999.0,-999.0,-999,0.00,,,0.06,,2013-09-06 02:42:00,
2013-09-05 22:52:00,52.0,-99.9,-100.00,North,-999,-999.0,-999.0,-999,0.00,,,0.06,,2013-09-06 02:52:00,
2013-09-05 23:02:00,52.0,-99.9,-100.00,North,-999,-999.0,-999.0,-999,0.00,,,0.06,,2013-09-06 03:02:00,
2013-09-05 23:12:00,52.0,-99.9,-100.00,North,-999,-999.0,-999.0,-999,0.00,,,0.06,,2013-09-06 03:12:00,
2013-09-05 23:44:00,50.0,-99.9,-100.00,North,-999,-999.0,-999.0,-999,0.00,,,0.03,,2013-09-06 03:44:00,
2013-09-05 23:55:00,50.0,-99.9,-100.00,North,-999,-999.0,-999.0,-999,0.00,,,0.03,,2013-09-06 03:55:00,